Litchfield, MN

7:59 AM CST on December 11, 2016 (GMT -0600)
Litchfield Municipal

Weather History for KLJF - November, 2013

Change the Weather History Date:

Monday, November 4, 2013

  Actual Average Record
Temperature  
Mean Temperature 40 °F -  
Max Temperature 48 °F 44 °F 74 °F (1975)
Min Temperature 33 °F 28 °F -1 °F (1991)
Degree Days  
Heating Degree Days 24    
Moisture  
Dew Point 36 °F    
Average Humidity 76    
Maximum Humidity 100    
Minimum Humidity 62    
Precipitation  
Precipitation 0.00 in - - ()
Sea Level Pressure  
Sea Level Pressure 29.90 in    
Wind  
Wind Speed 7 mph (South)    
Max Wind Speed 15 mph    
Max Gust Speed 26 mph    
Visibility 10 miles    
Events Rain    
Averages and records for this station are not official NWS values.
T = Trace of Precipitation, MM = Missing Value Source: NWS Daily Summary

Daily Weather History Graph

Daily Weather History Graph

Search for Another Location

Airport or City:

Trip Planner

Search our weather history database for the weather conditions in past years. The results will help you decide how hot, cold, wet, or windy it might be!

Date:

Astronomy

Nov. 04, 2013 Rise Set
Actual Time 7:01 AM CST 5:01 PM CST
Civil Twilight 6:30 AM CST 5:32 PM CST
Nautical Twilight 5:55 AM CST 6:07 PM CST
Astronomical Twilight 5:21 AM CST 6:41 PM CST
Moon 8:15 AM CST (11/4) 6:03 PM CST (11/4)
Length of Visible Light 11h 02m
Length of Day
10h 00m
New Moon, 2% of the Moon is Illuminated
Nov 4
New Moon
Nov 9
First Quarter
Nov 17
Full
Nov 25
Last Quarter
Dec 2
New

Hourly Weather History & Observations

Time (CST) Temp. Windchill Dew Point Humidity Pressure Visibility Wind Dir Wind Speed Gust Speed Precip Events Conditions
12:12 AM 48.2 °F - 35.6 °F 62% 29.80 in 10.0 mi SSE 12.7 mph 26.5 mph N/A   Overcast
12:33 AM 48.2 °F - 35.6 °F 62% 29.80 in 10.0 mi SSE 12.7 mph 19.6 mph N/A   Overcast
12:52 AM 48.2 °F - 35.6 °F 62% 29.79 in 10.0 mi SSE 11.5 mph 19.6 mph N/A   Scattered Clouds
1:13 AM 48.2 °F - 35.6 °F 62% 29.80 in 10.0 mi SSE 10.4 mph 19.6 mph N/A   Scattered Clouds
1:33 AM 48.2 °F - 35.6 °F 62% 29.80 in 10.0 mi SSE 8.1 mph - N/A   Clear
1:52 AM 48.2 °F - 35.6 °F 62% 29.80 in 10.0 mi SSE 6.9 mph 16.1 mph N/A   Clear
2:13 AM 46.4 °F 42.9 °F 35.6 °F 66% 29.79 in 10.0 mi SSE 6.9 mph - N/A   Clear
2:33 AM 46.4 °F 42.9 °F 35.6 °F 66% 29.79 in 10.0 mi SSE 6.9 mph 18.4 mph N/A   Clear
2:52 AM 46.4 °F 41.5 °F 35.6 °F 66% 29.78 in 10.0 mi SSE 10.4 mph 17.3 mph N/A   Clear
3:13 AM 46.4 °F 42.4 °F 35.6 °F 66% 29.78 in 10.0 mi SSE 8.1 mph - N/A   Clear
3:33 AM 46.4 °F 42.9 °F 35.6 °F 66% 29.78 in 10.0 mi SSE 6.9 mph - N/A   Clear
3:52 AM 46.4 °F 44.3 °F 35.6 °F 66% 29.78 in 10.0 mi SSE 4.6 mph 18.4 mph N/A   Clear
4:13 AM 46.4 °F 43.5 °F 35.6 °F 66% 29.78 in 10.0 mi SSE 5.8 mph 16.1 mph N/A   Clear
4:33 AM 46.4 °F 42.9 °F 35.6 °F 66% 29.78 in 10.0 mi SSE 6.9 mph 16.1 mph N/A   Clear
4:52 AM 46.4 °F 43.5 °F 35.6 °F 66% 29.78 in 10.0 mi SSE 5.8 mph 17.3 mph N/A   Clear
5:13 AM 46.4 °F 42.4 °F 35.6 °F 66% 29.78 in 10.0 mi SSE 8.1 mph - N/A   Clear
5:33 AM 46.4 °F 43.5 °F 37.4 °F 71% 29.78 in 10.0 mi SSE 5.8 mph 16.1 mph N/A   Clear
5:52 AM 46.4 °F 45.2 °F 37.4 °F 71% 29.78 in 10.0 mi SSE 3.5 mph - N/A   Clear
6:13 AM 46.4 °F 42.4 °F 37.4 °F 71% 29.77 in 10.0 mi SSE 8.1 mph - N/A   Clear
6:33 AM 46.4 °F 43.5 °F 37.4 °F 71% 29.77 in 10.0 mi SSE 5.8 mph - N/A   Clear
6:53 AM 46.4 °F 45.2 °F 37.4 °F 71% 29.77 in 10.0 mi SSE 3.5 mph - N/A   Clear
7:12 AM 46.4 °F 45.2 °F 37.4 °F 71% 29.78 in 10.0 mi SSE 3.5 mph - N/A   Clear
7:33 AM 46.4 °F - 37.4 °F 71% 29.79 in 10.0 mi Calm Calm - N/A   Scattered Clouds
7:53 AM 46.4 °F 41.9 °F 37.4 °F 71% 29.78 in 10.0 mi SSE 9.2 mph - N/A   Overcast
8:12 AM 46.4 °F 44.3 °F 37.4 °F 71% 29.79 in 10.0 mi SSE 4.6 mph - N/A   Overcast
8:33 AM 46.4 °F 42.4 °F 39.2 °F 76% 29.79 in 10.0 mi SSE 8.1 mph - N/A   Mostly Cloudy
8:53 AM 46.4 °F 45.2 °F 41.0 °F 81% 29.79 in 10.0 mi SSE 3.5 mph - N/A   Mostly Cloudy
9:12 AM 46.4 °F - 42.8 °F 87% 29.79 in 10.0 mi Calm Calm - N/A   Drizzle
9:33 AM 46.4 °F - 42.8 °F 87% 29.79 in 10.0 mi Calm Calm - N/A   Overcast
9:53 AM 46.4 °F - 42.8 °F 87% 29.80 in 10.0 mi Calm Calm - N/A Rain Light Rain
10:12 AM 46.4 °F - 44.6 °F 93% 29.81 in 10.0 mi Calm Calm - N/A   Light Drizzle
10:33 AM 46.4 °F - 44.6 °F 93% 29.81 in 10.0 mi Calm Calm - N/A   Light Drizzle
10:53 AM 46.4 °F 41.5 °F 44.6 °F 93% 29.83 in 10.0 mi WSW 10.4 mph 18.4 mph N/A Rain Rain
11:12 AM 44.6 °F 39.7 °F 42.8 °F 93% 29.84 in 7.0 mi West 9.2 mph - N/A Rain Rain
11:33 AM 42.8 °F 35.4 °F 42.8 °F 100% 29.84 in 7.0 mi West 15.0 mph 20.7 mph N/A Rain Light Rain
11:52 AM 42.8 °F 35.8 °F 42.8 °F 100% 29.84 in 10.0 mi WNW 13.8 mph 21.9 mph N/A   Mostly Cloudy
12:13 PM 46.4 °F 41.5 °F 41.0 °F 81% 29.85 in 10.0 mi WNW 10.4 mph 19.6 mph N/A   Scattered Clouds
12:33 PM 46.4 °F 40.7 °F 41.0 °F 81% 29.86 in 10.0 mi WNW 12.7 mph 20.7 mph N/A   Scattered Clouds
12:52 PM 44.6 °F 37.8 °F 39.2 °F 81% 29.87 in 10.0 mi WNW 15.0 mph 18.4 mph N/A   Mostly Cloudy
1:13 PM 44.6 °F 38.8 °F 39.2 °F 81% 29.87 in 10.0 mi WNW 11.5 mph - N/A   Overcast
1:33 PM 44.6 °F 38.8 °F 39.2 °F 81% 29.87 in 10.0 mi West 11.5 mph 17.3 mph N/A   Overcast
1:52 PM 44.6 °F 39.2 °F 39.2 °F 81% 29.89 in 10.0 mi West 10.4 mph 17.3 mph N/A   Overcast
2:13 PM 46.4 °F 42.4 °F 41.0 °F 81% 29.90 in 10.0 mi West 8.1 mph 16.1 mph N/A   Overcast
2:33 PM 46.4 °F 41.1 °F 39.2 °F 76% 29.91 in 10.0 mi West 11.5 mph - N/A   Mostly Cloudy
2:52 PM 46.4 °F 41.9 °F 37.4 °F 71% 29.92 in 10.0 mi West 9.2 mph - N/A   Scattered Clouds
3:13 PM 44.6 °F - 37.4 °F 76% 29.93 in 10.0 mi Calm Calm - N/A   Scattered Clouds
3:33 PM 46.4 °F 40.7 °F 35.6 °F 66% 29.94 in 10.0 mi West 12.7 mph 17.3 mph N/A   Mostly Cloudy
3:52 PM 44.6 °F 39.7 °F 33.8 °F 66% 29.95 in 10.0 mi West 9.2 mph 16.1 mph N/A   Scattered Clouds
4:13 PM 44.6 °F - 33.8 °F 66% 29.96 in 10.0 mi Calm Calm - N/A   Clear
4:33 PM 44.6 °F - 33.8 °F 66% 29.97 in 10.0 mi Calm Calm - N/A   Clear
4:52 PM 42.8 °F - 33.8 °F 70% 29.98 in 10.0 mi Calm Calm - N/A   Clear
5:13 PM 42.8 °F - 33.8 °F 70% 29.98 in 10.0 mi Calm Calm - N/A   Clear
5:32 PM 39.2 °F - 33.8 °F 81% 29.98 in 10.0 mi Calm Calm - N/A   Clear
5:53 PM 39.2 °F - 33.8 °F 81% 30.00 in 10.0 mi Calm Calm - N/A   Clear
6:12 PM 39.2 °F - 33.8 °F 81% 30.01 in 10.0 mi Calm Calm - N/A   Clear
6:33 PM 37.4 °F - 33.8 °F 87% 30.01 in 10.0 mi Calm Calm - N/A   Clear
6:52 PM 39.2 °F - 33.8 °F 81% 30.02 in 10.0 mi Calm Calm - N/A   Clear
7:13 PM 37.4 °F - 32.0 °F 81% 30.04 in 10.0 mi Calm Calm - N/A   Clear
7:33 PM 39.2 °F - 30.2 °F 70% 30.05 in 10.0 mi Calm Calm - N/A   Clear
7:52 PM 37.4 °F - 30.2 °F 75% 30.05 in 10.0 mi Calm Calm - N/A   Clear
8:13 PM 37.4 °F - 30.2 °F 75% 30.06 in 10.0 mi Calm Calm - N/A   Clear
8:33 PM 37.4 °F - 32.0 °F 81% 30.07 in 10.0 mi Calm Calm - N/A   Clear
8:52 PM 35.6 °F - 30.2 °F 81% 30.08 in 10.0 mi Calm Calm - N/A   Clear
9:13 PM 35.6 °F - 30.2 °F 81% 30.09 in 10.0 mi Calm Calm - N/A   Clear
9:32 PM 35.6 °F - 30.2 °F 81% 30.10 in 10.0 mi Calm Calm - N/A   Clear
9:53 PM 35.6 °F - 30.2 °F 81% 30.10 in 10.0 mi Calm Calm - N/A   Clear
10:13 PM 35.6 °F - 30.2 °F 81% 30.11 in 10.0 mi Calm Calm - N/A   Clear
10:32 PM 35.6 °F - 30.2 °F 81% 30.11 in 10.0 mi Calm Calm - N/A   Clear
10:53 PM 33.8 °F - 30.2 °F 87% 30.12 in 10.0 mi Calm Calm - N/A   Clear
11:13 PM 35.6 °F - 30.2 °F 81% 30.12 in 10.0 mi Calm Calm - N/A   Clear
11:32 PM 35.6 °F - 30.2 °F 81% 30.13 in 10.0 mi Calm Calm - N/A   Clear
11:53 PM 35.6 °F - 30.2 °F 81% 30.14 in 10.0 mi Calm Calm - N/A   Clear